Regional Weather Roundup
Issued by NWS

Home | Current Version | Previous Version | Text Only | Print | Product List | Glossary On
Versions: 1 2 3 4 5 6 7 8 9 10 11 12 13 14 15 16 17 18 19 20 21 22 23 24 25 26 27 28 29 30 31 32 33 34 35 36 37 38 39 40 41 42 43 44 45 46 47 48 49 50
000
ASUS43 KDTX 201901
RWRMI
MICHIGAN HOURLY REGIONAL WEATHER ROUNDUP
NATIONAL WEATHER SERVICE DETROIT/PONTIAC MI
300 PM EDT WED AUG 20 2014

NOTE: "FAIR" INDICATES FEW OR NO CLOUDS BELOW 12,000 FEET WITH NO
SIGNIFICANT WEATHER AND/OR OBSTRUCTION TO VISIBILITY.

MIZ047>049-052>055-059>063-066>070-074>076-081>083-202000-
SOUTHEAST LOWER MICHIGAN

CITY           SKY/WX    TMP DP  RH WIND       PRES   REMARKS
ADRIAN         PTSUNNY   83  63  50 W13G21    29.91R
ALMA           LGT RAIN  77  64  64 W8        29.88R
ANN ARBOR      PTSUNNY   79  63  57 W12       29.90R
BAD AXE        MOSUNNY   78  67  69 W9        29.87R
CARO           MOSUNNY   79  67  66 W9G17     29.86R
DETROIT CITY   SUNNY     84  63  49 W13G18    29.88R
DETROIT        PTSUNNY   81  65  58 SW13      29.89R
FLINT          MOSUNNY   82  65  56 W13       29.88R
GROSSE ILE     PTSUNNY   81  68  65 W6        29.88R
HILLSDALE      MOSUNNY   81  66  61 W8        29.93S
HOWELL         CLOUDY    78  64  63 W8        29.88F

CITY           SKY/WX    TMP DP  RH WIND       PRES   REMARKS
JACKSON        CLOUDY    77  65  66 W6        29.91R
LAMBERTVILLE   LGT RAIN  77  68  73 W5G17     29.91R
LANSING        PTSUNNY   80  65  59 W16       29.89S
LAPEER         MOCLDY    77  65  67 NW6       29.87S
MASON          PTSUNNY   80  65  59 SW10G18   29.90S
MONROE         MOSUNNY   82  70  65 SW10      29.88S
MT. CLEMENS    PTSUNNY   81  62  53 W14G20    29.86R
PONTIAC        PTSUNNY   80  64  58 SW12      29.88R
PORT HOPE        N/A     69  66  90 E8        29.86R
PORT HURON     PTSUNNY   73  72  94 CALM      29.87S
TRI CITIES     LGT RAIN  75  68  78 SW5       29.86S
TROY           MOSUNNY   83  61  47 SW12G17   29.90R
SAGINAW HB     MOSUNNY   81  63  54 W12       29.85S
$$
MIZ043>046-050>051-056>058-064>065-071>073-077>080-202000-
SOUTHWEST LOWER MICHIGAN

CITY           SKY/WX    TMP DP  RH WIND       PRES   REMARKS
BATTLE CREEK   MOSUNNY   79  63  57 W13       29.93R
BENTON HARBOR  MOSUNNY   80  63  55 VRB7      29.92F
BIG RAPIDS     MOSUNNY   75  64  69 W12G17    29.89R
COLDWATER      CLOUDY    82  65  57 W12G18    29.92F
FREMONT        FAIR      77  61  57 W12G17    29.89R
HOLLAND        SUNNY     78  66  66 W13       29.94R
GRAND RAPIDS   PTSUNNY   79  66  64 W18       29.91R
IONIA          FAIR      79  63  56 W14G20    29.89R
KALAMAZOO      PTSUNNY   84  62  47 W16G24    29.93R
LUDINGTON      CLOUDY    69  65  84 W6        29.92R
MARSHALL       CLOUDY    78  64  63 W10       29.91S
MOUNT PLEASANT MOSUNNY   79  63  58 W9G16     29.86S
MUSKEGON       MOSUNNY   75  64  68 W8        29.92R
SOUTH HAVEN    CLOUDY    77  68  73 W7        29.94S
$$
MIZ016>042-202000-
NORTHERN LOWER MICHIGAN

CITY           SKY/WX    TMP DP  RH WIND       PRES   REMARKS
ALPENA         CLOUDY    76  64  66 W7        29.84S
BEAVER ISLAND  CLOUDY    64  62  93 W3        29.88R FOG
BELLAIRE       CLOUDY    70  60  72 W3        29.87S
CADILLAC       CLOUDY    71  63  74 W9        29.89R
CHARLEVOIX     CLOUDY    66  64  91 W10       29.91R
FRANKFORT      CLOUDY    69  61  76 W8        29.90R
GAYLORD        CLOUDY    68  60  75 W9        29.88S
GRAYLING       CLOUDY    75  61  62 W8        29.88S
HARBOR SPRINGS CLOUDY    64  62  93 W8        29.88R FOG
HOUGHTON LAKE  CLOUDY    73  62  68 W8        29.88S
MANISTEE       CLOUDY    70  59  68 W12       29.91S
OSCODA         HVY RAIN  69  68  96 SW3       29.86R
PELLSTON       CLOUDY    66  63  90 SW8       29.87R
TRAVERSE CITY  CLOUDY    72  60  66 W9        29.86S
$$
MIZ007>008-015-202000-
EASTERN UPPER MICHIGAN

CITY           SKY/WX    TMP DP  RH WIND       PRES   REMARKS
KINROSS        CLOUDY    66  64  94 CALM      29.86S
MACKINAC ISLAN CLOUDY    64  64 100 CALM      29.86R FOG
NEWBERRY       CLOUDY    63  61  94 NW6       29.87S
S. S. MARIE    CLOUDY    66  63  90 E5        29.85S
$$
MIZ004>006-011>014-085-202000-
CENTRAL UPPER MICHIGAN

CITY           SKY/WX    TMP DP  RH WIND       PRES   REMARKS
MANISTIQUE     CLOUDY    64  62  93 NW6       29.88R
ESCANABA       CLOUDY    66  59  77 S5        29.89R
MENOMINEE      CLOUDY    70  63  78 SW6       29.88R
SAWYER-GWINN   CLOUDY    64  59  82 NW3       29.89S
$$
MIZ001>003-009>011-084-202000-
WESTERN UPPER MICHIGAN

CITY           SKY/WX    TMP DP  RH WIND       PRES   REMARKS
IRON MOUNTAIN  CLOUDY    66  59  78 N6        29.90R
HOUGHTON       CLOUDY    62  58  86 NW9       29.89S
COPPER HARBOR    N/A     53  52  96 N7        29.89R
IRONWOOD       CLOUDY    66  61  82 N5        29.89F
$$

ABBREVIATIONS USED IN REMARKS
   TC - TEMPERATURE IN CELSIUS
  WCI - WIND CHILL INDEX
   HX - HEAT INDEX
  VSB - VISIBILITY




USA.gov is the U.S. government's official web portal to all federal, state and local government web resources and services.